Time,TemperatureF,DewpointF,PressureIn,WindDirection,WindDirectionDegrees,WindSpeedMPH,WindSpeedGustMPH,Humidity,HourlyPrecipIn,Conditions,Clouds,dailyrainin,SoftwareType,DateUTC
2013-08-13 00:10:00,64.5,62.0,29.94,West,267,0.0,0.0,91,0.00,,,0.00,weatherlink.com 1.10,2013-08-13 04:10:00,
2013-08-13 00:25:00,64.4,62.0,29.93,West,266,0.0,1.0,91,0.00,,,0.00,weatherlink.com 1.10,2013-08-13 04:25:00,
2013-08-13 00:40:00,64.3,62.0,29.93,South,190,0.0,1.0,91,0.00,,,0.00,weatherlink.com 1.10,2013-08-13 04:40:00,
2013-08-13 00:55:00,63.9,62.0,29.93,South,190,0.0,1.0,92,0.00,,,0.00,weatherlink.com 1.10,2013-08-13 04:55:00,
2013-08-13 01:10:00,63.6,61.0,29.93,South,190,0.0,1.0,92,0.00,,,0.00,weatherlink.com 1.10,2013-08-13 05:10:00,
2013-08-13 01:25:00,63.2,61.0,29.92,South,190,0.0,1.0,93,0.00,,,0.00,weatherlink.com 1.10,2013-08-13 05:25:00,
2013-08-13 01:40:00,63.0,61.0,29.92,South,190,0.0,0.0,93,0.00,,,0.00,weatherlink.com 1.10,2013-08-13 05:40:00,
2013-08-13 01:55:00,62.8,61.0,29.91,South,190,0.0,0.0,93,0.00,,,0.00,weatherlink.com 1.10,2013-08-13 05:55:00,
2013-08-13 02:10:00,62.9,61.0,29.91,South,190,0.0,1.0,94,0.00,,,0.00,weatherlink.com 1.10,2013-08-13 06:10:00,
2013-08-13 02:25:00,62.8,61.0,29.91,South,190,0.0,1.0,93,0.00,,,0.00,weatherlink.com 1.10,2013-08-13 06:25:00,
2013-08-13 02:40:00,62.7,61.0,29.90,South,190,0.0,0.0,93,0.00,,,0.00,weatherlink.com 1.10,2013-08-13 06:40:00,
2013-08-13 02:55:00,62.6,60.0,29.90,South,190,0.0,1.0,92,0.00,,,0.00,weatherlink.com 1.10,2013-08-13 06:55:00,
2013-08-13 03:10:00,62.6,60.0,29.90,South,190,0.0,0.0,92,0.00,,,0.00,weatherlink.com 1.10,2013-08-13 07:10:00,
2013-08-13 03:25:00,62.6,60.0,29.90,South,190,0.0,1.0,92,0.00,,,0.00,weatherlink.com 1.10,2013-08-13 07:25:00,
2013-08-13 03:40:00,62.5,61.0,29.89,South,190,0.0,1.0,93,0.00,,,0.00,weatherlink.com 1.10,2013-08-13 07:40:00,
2013-08-13 03:55:00,62.5,61.0,29.89,South,190,0.0,1.0,93,0.00,,,0.00,weatherlink.com 1.10,2013-08-13 07:55:00,
2013-08-13 04:10:00,62.6,61.0,29.88,South,190,0.0,0.0,93,0.00,,,0.00,weatherlink.com 1.10,2013-08-13 08:10:00,
2013-08-13 04:25:00,62.6,61.0,29.88,South,190,0.0,1.0,93,0.00,,,0.00,weatherlink.com 1.10,2013-08-13 08:25:00,
2013-08-13 04:40:00,62.4,61.0,29.88,SSE,158,0.0,2.0,94,0.00,,,0.00,weatherlink.com 1.10,2013-08-13 08:40:00,
2013-08-13 04:55:00,62.2,61.0,29.87,SSE,158,0.0,1.0,94,0.00,,,0.00,weatherlink.com 1.10,2013-08-13 08:55:00,
2013-08-13 05:10:00,62.2,61.0,29.87,SE,138,0.0,1.0,95,0.00,,,0.00,weatherlink.com 1.10,2013-08-13 09:10:00,
2013-08-13 05:25:00,62.5,61.0,29.87,East,96,2.0,2.0,95,0.00,,,0.00,weatherlink.com 1.10,2013-08-13 09:25:00,
2013-08-13 05:40:00,63.0,61.0,29.87,East,100,0.0,1.0,94,0.00,,,0.00,weatherlink.com 1.10,2013-08-13 09:40:00,
2013-08-13 05:55:00,62.8,61.0,29.87,SE,131,0.0,1.0,94,0.00,,,0.00,weatherlink.com 1.10,2013-08-13 09:55:00,
2013-08-13 06:10:00,62.7,61.0,29.88,SSE,160,0.0,2.0,95,0.00,,,0.00,weatherlink.com 1.10,2013-08-13 10:10:00,
2013-08-13 06:25:00,62.8,61.0,29.88,SSE,159,0.0,2.0,95,0.00,,,0.00,weatherlink.com 1.10,2013-08-13 10:25:00,
2013-08-13 06:40:00,63.9,63.0,29.87,East,84,1.0,2.0,96,0.00,,,0.00,weatherlink.com 1.10,2013-08-13 10:40:00,
2013-08-13 06:55:00,64.1,63.0,29.87,ESE,103,0.0,1.0,95,0.00,,,0.00,weatherlink.com 1.10,2013-08-13 10:55:00,
2013-08-13 07:10:00,64.7,64.0,29.87,East,83,2.0,2.0,96,0.00,,,0.00,weatherlink.com 1.10,2013-08-13 11:10:00,
2013-08-13 07:25:00,65.2,64.0,29.86,ESE,104,0.0,1.0,95,0.00,,,0.00,weatherlink.com 1.10,2013-08-13 11:25:00,
2013-08-13 07:40:00,65.0,64.0,29.86,SSE,165,1.0,2.0,95,0.00,,,0.00,weatherlink.com 1.10,2013-08-13 11:40:00,
2013-08-13 07:55:00,65.3,64.0,29.86,SE,134,1.0,3.0,95,0.00,,,0.00,weatherlink.com 1.10,2013-08-13 11:55:00,
2013-08-13 08:10:00,65.7,64.0,29.85,ESE,118,2.0,4.0,95,0.00,,,0.00,weatherlink.com 1.10,2013-08-13 12:10:00,
2013-08-13 08:25:00,66.2,65.0,29.84,ESE,113,1.0,3.0,95,0.00,,,0.00,weatherlink.com 1.10,2013-08-13 12:25:00,
2013-08-13 08:40:00,66.7,65.0,29.84,East,86,2.0,4.0,94,0.00,,,0.00,weatherlink.com 1.10,2013-08-13 12:40:00,
2013-08-13 08:55:00,66.8,65.0,29.84,ESE,122,2.0,3.0,94,0.00,,,0.00,weatherlink.com 1.10,2013-08-13 12:55:00,
2013-08-13 09:10:00,67.0,65.0,29.84,SE,139,0.0,3.0,94,0.00,,,0.00,weatherlink.com 1.10,2013-08-13 13:10:00,
2013-08-13 09:25:00,67.7,66.0,29.84,East,90,0.0,2.0,95,0.00,,,0.00,weatherlink.com 1.10,2013-08-13 13:25:00,
2013-08-13 09:40:00,68.5,67.0,29.84,SE,136,3.0,4.0,94,0.00,,,0.00,weatherlink.com 1.10,2013-08-13 13:40:00,
2013-08-13 09:55:00,69.2,67.0,29.84,SE,131,3.0,4.0,93,0.00,,,0.00,weatherlink.com 1.10,2013-08-13 13:55:00,
2013-08-13 10:10:00,69.6,68.0,29.85,SSE,166,2.0,4.0,93,0.00,,,0.00,weatherlink.com 1.10,2013-08-13 14:10:00,
2013-08-13 10:25:00,70.2,68.0,29.85,East,82,2.0,5.0,92,0.00,,,0.00,weatherlink.com 1.10,2013-08-13 14:25:00,
2013-08-13 10:41:00,70.4,68.0,29.84,SSE,166,2.0,6.0,91,0.00,,,0.00,weatherlink.com 1.10,2013-08-13 14:41:00,
2013-08-13 10:56:00,70.8,68.0,29.84,ESE,105,1.0,5.0,90,0.00,,,0.00,weatherlink.com 1.10,2013-08-13 14:56:00,
2013-08-13 11:11:00,71.2,67.0,29.84,WSW,242,1.0,7.0,87,0.00,,,0.00,weatherlink.com 1.10,2013-08-13 15:11:00,
2013-08-13 11:26:00,71.3,67.0,29.84,SW,225,1.0,8.0,86,0.00,,,0.00,weatherlink.com 1.10,2013-08-13 15:26:00,
2013-08-13 11:41:00,71.3,67.0,29.84,SE,132,1.0,6.0,86,0.00,,,0.00,weatherlink.com 1.10,2013-08-13 15:41:00,
2013-08-13 11:56:00,71.3,68.0,29.84,SE,134,0.0,4.0,88,0.00,,,0.00,weatherlink.com 1.10,2013-08-13 15:56:00,
2013-08-13 12:11:00,71.1,67.0,29.84,ENE,72,1.0,4.0,88,0.00,,,0.00,weatherlink.com 1.10,2013-08-13 16:11:00,
2013-08-13 12:26:00,70.6,66.0,29.83,SSW,198,5.0,8.0,86,0.00,,,0.00,weatherlink.com 1.10,2013-08-13 16:26:00,
2013-08-13 12:41:00,70.2,66.0,29.83,SSE,166,1.0,4.0,87,0.01,,,0.01,weatherlink.com 1.10,2013-08-13 16:41:00,
2013-08-13 12:56:00,69.7,66.0,29.83,ENE,68,4.0,6.0,87,0.01,,,0.01,weatherlink.com 1.10,2013-08-13 16:56:00,
2013-08-13 13:26:00,69.0,65.0,29.80,SE,143,4.0,6.0,88,0.01,,,0.01,weatherlink.com 1.10,2013-08-13 17:26:00,
2013-08-13 13:41:00,69.2,66.0,29.79,SE,143,2.0,6.0,88,0.00,,,0.01,weatherlink.com 1.10,2013-08-13 17:41:00,
2013-08-13 13:56:00,69.5,67.0,29.78,SE,131,5.0,10.0,91,0.00,,,0.01,weatherlink.com 1.10,2013-08-13 17:56:00,
2013-08-13 14:11:00,69.7,67.0,29.77,ESE,103,1.0,5.0,91,0.00,,,0.01,weatherlink.com 1.10,2013-08-13 18:11:00,
2013-08-13 14:26:00,69.8,67.0,29.76,East,91,1.0,8.0,89,0.00,,,0.01,weatherlink.com 1.10,2013-08-13 18:26:00,
2013-08-13 14:41:00,70.2,67.0,29.76,SW,217,1.0,7.0,88,0.00,,,0.01,weatherlink.com 1.10,2013-08-13 18:41:00,
2013-08-13 14:56:00,70.6,67.0,29.75,South,174,2.0,7.0,88,0.00,,,0.01,weatherlink.com 1.10,2013-08-13 18:56:00,
2013-08-13 15:11:00,70.3,66.0,29.75,ESE,110,1.0,7.0,85,0.00,,,0.01,weatherlink.com 1.10,2013-08-13 19:11:00,
2013-08-13 15:26:00,70.5,66.0,29.76,East,96,6.0,6.0,84,0.00,,,0.01,weatherlink.com 1.10,2013-08-13 19:26:00,
2013-08-13 15:41:00,70.6,66.0,29.75,ESE,116,3.0,8.0,84,0.00,,,0.01,weatherlink.com 1.10,2013-08-13 19:41:00,
2013-08-13 15:56:00,71.2,66.0,29.74,East,86,6.0,8.0,83,0.00,,,0.01,weatherlink.com 1.10,2013-08-13 19:56:00,
2013-08-13 16:11:00,72.0,66.0,29.75,SSE,152,1.0,10.0,81,0.00,,,0.01,weatherlink.com 1.10,2013-08-13 20:11:00,
2013-08-13 16:26:00,71.8,65.0,29.74,East,86,1.0,8.0,80,0.00,,,0.01,weatherlink.com 1.10,2013-08-13 20:26:00,
2013-08-13 16:41:00,72.0,66.0,29.73,East,97,4.0,6.0,80,0.00,,,0.01,weatherlink.com 1.10,2013-08-13 20:41:00,
2013-08-13 16:56:00,72.5,65.0,29.72,ENE,77,2.0,6.0,77,0.00,,,0.01,weatherlink.com 1.10,2013-08-13 20:56:00,
2013-08-13 17:11:00,73.0,65.0,29.72,SSE,155,3.0,5.0,75,0.00,,,0.01,weatherlink.com 1.10,2013-08-13 21:11:00,
2013-08-13 17:26:00,73.7,65.0,29.71,SE,129,0.0,5.0,73,0.00,,,0.01,weatherlink.com 1.10,2013-08-13 21:26:00,
2013-08-13 17:41:00,73.7,64.0,29.71,SSW,200,0.0,3.0,71,0.00,,,0.01,weatherlink.com 1.10,2013-08-13 21:41:00,
2013-08-13 17:56:00,73.9,64.0,29.72,WSW,255,1.0,3.0,70,0.00,,,0.01,weatherlink.com 1.10,2013-08-13 21:56:00,
2013-08-13 18:11:00,73.3,64.0,29.72,WSW,239,1.0,4.0,72,0.00,,,0.01,weatherlink.com 1.10,2013-08-13 22:11:00,
2013-08-13 18:41:00,73.0,63.0,29.71,SSW,197,0.0,1.0,72,0.00,,,0.01,weatherlink.com 1.10,2013-08-13 22:41:00,
2013-08-13 18:56:00,72.5,63.0,29.70,SE,124,1.0,2.0,73,0.00,,,0.01,weatherlink.com 1.10,2013-08-13 22:56:00,
2013-08-13 19:11:00,71.5,63.0,29.70,ESE,113,0.0,1.0,75,0.00,,,0.01,weatherlink.com 1.10,2013-08-13 23:11:00,
2013-08-13 19:26:00,70.4,63.0,29.70,ESE,119,0.0,1.0,78,0.00,,,0.01,weatherlink.com 1.10,2013-08-13 23:26:00,
2013-08-13 19:41:00,69.1,64.0,29.70,SSW,200,0.0,1.0,83,0.00,,,0.01,weatherlink.com 1.10,2013-08-13 23:41:00,
2013-08-13 19:56:00,67.9,63.0,29.70,SSW,200,0.0,0.0,85,0.00,,,0.01,weatherlink.com 1.10,2013-08-13 23:56:00,
2013-08-13 20:11:00,66.9,63.0,29.71,SSW,200,0.0,0.0,88,0.00,,,0.01,weatherlink.com 1.10,2013-08-14 00:11:00,
2013-08-13 20:26:00,66.4,63.0,29.71,SSW,200,0.0,1.0,89,0.00,,,0.01,weatherlink.com 1.10,2013-08-14 00:26:00,
2013-08-13 20:41:00,66.0,63.0,29.72,SSW,200,0.0,1.0,90,0.00,,,0.01,weatherlink.com 1.10,2013-08-14 00:41:00,
2013-08-13 20:57:00,65.6,63.0,29.72,SSW,198,0.0,1.0,90,0.00,,,0.01,weatherlink.com 1.10,2013-08-14 00:57:00,
2013-08-13 21:11:00,65.2,63.0,29.72,East,97,0.0,1.0,91,0.00,,,0.01,weatherlink.com 1.10,2013-08-14 01:11:00,
2013-08-13 21:27:00,65.0,62.0,29.72,East,98,0.0,1.0,91,0.00,,,0.01,weatherlink.com 1.10,2013-08-14 01:27:00,
2013-08-13 21:42:00,64.5,62.0,29.73,East,97,0.0,0.0,92,0.00,,,0.01,weatherlink.com 1.10,2013-08-14 01:42:00,
2013-08-13 21:57:00,63.9,62.0,29.74,East,97,0.0,0.0,93,0.00,,,0.01,weatherlink.com 1.10,2013-08-14 01:57:00,
2013-08-13 22:12:00,63.9,62.0,29.73,East,97,0.0,1.0,94,0.00,,,0.01,weatherlink.com 1.10,2013-08-14 02:12:00,
2013-08-13 22:27:00,63.6,62.0,29.73,East,98,0.0,1.0,94,0.00,,,0.01,weatherlink.com 1.10,2013-08-14 02:27:00,
2013-08-13 22:42:00,63.8,62.0,29.72,WNW,295,0.0,1.0,95,0.00,,,0.01,weatherlink.com 1.10,2013-08-14 02:42:00,
2013-08-13 22:57:00,63.5,62.0,29.72,WNW,295,0.0,1.0,95,0.00,,,0.01,weatherlink.com 1.10,2013-08-14 02:57:00,
2013-08-13 23:12:00,63.4,62.0,29.71,NE,34,0.0,0.0,95,0.00,,,0.01,weatherlink.com 1.10,2013-08-14 03:12:00,
2013-08-13 23:27:00,63.4,62.0,29.71,NE,34,0.0,1.0,95,0.00,,,0.01,weatherlink.com 1.10,2013-08-14 03:27:00,
2013-08-13 23:42:00,63.2,62.0,29.70,East,98,0.0,1.0,95,0.00,,,0.01,weatherlink.com 1.10,2013-08-14 03:42:00,
2013-08-13 23:57:00,63.1,62.0,29.70,ESE,105,1.0,1.0,96,0.00,,,0.01,weatherlink.com 1.10,2013-08-14 03:57:00,